Private Wetterstation Wechselburg
Wetterdaten: Mittwoch, 27.07.2011
Datum Zeit Temp. +2m Bodentemp. Temp.+5cm Temp. Wind Windchill X Diff Temp. Feuchte +2m Feuchte +5cm Sonnenschein Luftdruck Regen Wind Richtung Richtung Sonnenschein UV Taupunkt Windchill Windben
27.07.2011 00:00 16,3 C 21,3 C 14,3 C 14,9 C 12,1 C 0,0 C 72 % 81 % 0 % 1014,9 hPa 0,0 l/m 0,0 km/h (0 Bft) W 270 0 min 0,0 UV-I 11,2 C 12,1 C 0,0 km/h (0 Bft)
27.07.2011 00:10 16,0 C 21,3 C 14,3 C 14,6 C 11,9 C 0,0 C 73 % 81 % 0 % 1014,8 hPa 0,0 l/m 0,0 km/h (0 Bft) N 0 0 min 0,0 UV-I 11,2 C 11,9 C 0,0 km/h (0 Bft)
27.07.2011 00:15 16,1 C 21,3 C 14,3 C 14,7 C 11,9 C 0,0 C 73 % 81 % 0 % 1014,8 hPa 0,0 l/m 0,0 km/h (0 Bft) W-SW 247 0 min 0,0 UV-I 11,3 C 11,9 C 0,0 km/h (0 Bft)
27.07.2011 00:20 15,9 C 21,3 C 14,3 C 14,5 C 11,8 C 0,0 C 73 % 81 % 0 % 1014,8 hPa 0,0 l/m 0,0 km/h (0 Bft) W-SW 247 0 min 0,0 UV-I 11,1 C 11,8 C 0,0 km/h (0 Bft)
27.07.2011 00:25 15,9 C 21,3 C 14,3 C 14,5 C 11,8 C 0,0 C 74 % 81 % 0 % 1014,8 hPa 0,0 l/m 0,0 km/h (0 Bft) W 270 0 min 0,0 UV-I 11,3 C 11,8 C 0,0 km/h (0 Bft)
27.07.2011 00:30 15,8 C 21,3 C 14,3 C 14,4 C 11,7 C 0,0 C 74 % 81 % 0 % 1014,8 hPa 0,0 l/m 0,0 km/h (0 Bft) W-SW 247 0 min 0,0 UV-I 11,2 C 11,7 C 0,0 km/h (0 Bft)
27.07.2011 00:35 15,7 C 21,2 C 14,3 C 14,4 C 11,7 C 0,0 C 74 % 81 % 0 % 1014,8 hPa 0,0 l/m 0,0 km/h (0 Bft) W-SW 247 0 min 0,0 UV-I 11,1 C 11,7 C 0,0 km/h (0 Bft)
27.07.2011 00:40 15,7 C 21,3 C 14,3 C 14,3 C 11,6 C 0,0 C 74 % 81 % 0 % 1014,8 hPa 0,0 l/m 0,0 km/h (0 Bft) W 270 0 min 0,0 UV-I 11,1 C 11,6 C 0,0 km/h (0 Bft)
27.07.2011 00:45 15,5 C 21,3 C 14,3 C 14,2 C 11,6 C 0,0 C 74 % 81 % 0 % 1014,8 hPa 0,0 l/m 0,0 km/h (0 Bft) O 90 0 min 0,0 UV-I 10,9 C 11,6 C 0,0 km/h (0 Bft)
27.07.2011 00:50 15,3 C 21,3 C 14,3 C 14,1 C 11,6 C 0,0 C 74 % 81 % 0 % 1014,9 hPa 0,0 l/m 0,0 km/h (0 Bft) O 90 0 min 0,0 UV-I 10,7 C 11,6 C 0,0 km/h (0 Bft)
27.07.2011 00:55 15,2 C 21,4 C 14,3 C 14,0 C 11,6 C 0,0 C 75 % 81 % 0 % 1014,9 hPa 0,0 l/m 0,0 km/h (0 Bft) O 90 0 min 0,0 UV-I 10,8 C 11,6 C 0,0 km/h (0 Bft)
27.07.2011 01:00 15,1 C 21,3 C 14,3 C 14,0 C 11,7 C 0,0 C 75 % 81 % 0 % 1014,9 hPa 0,0 l/m 0,0 km/h (0 Bft) O 90 0 min 0,0 UV-I 10,7 C 11,7 C 0,0 km/h (0 Bft)
27.07.2011 01:10 15,1 C 21,3 C 14,3 C 14,0 C 11,7 C 0,0 C 76 % 81 % 0 % 1015,0 hPa 0,0 l/m 0,0 km/h (0 Bft) N 0 0 min 0,0 UV-I 10,9 C 11,7 C 0,0 km/h (0 Bft)
27.07.2011 01:15 15,1 C 21,3 C 14,3 C 14,0 C 11,7 C 0,0 C 76 % 81 % 0 % 1015,0 hPa 0,0 l/m 0,0 km/h (0 Bft) W-SW 247 0 min 0,0 UV-I 10,9 C 11,7 C 0,0 km/h (0 Bft)
27.07.2011 01:20 15,1 C 21,3 C 14,3 C 14,0 C 11,7 C 0,0 C 76 % 81 % 0 % 1015,0 hPa 0,0 l/m 0,0 km/h (0 Bft) W-SW 247 0 min 0,0 UV-I 10,9 C 11,7 C 0,0 km/h (0 Bft)
27.07.2011 01:25 15,1 C 21,2 C 14,3 C 13,9 C 11,6 C 0,0 C 76 % 81 % 0 % 1015,0 hPa 0,0 l/m 0,0 km/h (0 Bft) W 270 0 min 0,0 UV-I 10,9 C 11,6 C 0,0 km/h (0 Bft)
27.07.2011 01:30 15,1 C 21,3 C 14,3 C 13,9 C 11,6 C 0,0 C 76 % 81 % 0 % 1015,1 hPa 0,0 l/m 0,0 km/h (0 Bft) SW 225 0 min 0,0 UV-I 10,9 C 11,6 C 0,0 km/h (0 Bft)
27.07.2011 01:35 14,9 C 21,2 C 14,3 C 13,8 C 11,5 C 0,0 C 76 % 81 % 0 % 1015,1 hPa 0,0 l/m 0,0 km/h (0 Bft) W-SW 247 0 min 0,0 UV-I 10,7 C 11,5 C 0,0 km/h (0 Bft)
27.07.2011 01:40 14,9 C 21,2 C 14,3 C 13,8 C 11,5 C 0,0 C 77 % 81 % 0 % 1015,1 hPa 0,0 l/m 0,0 km/h (0 Bft) W 270 0 min 0,0 UV-I 10,9 C 11,5 C 0,0 km/h (0 Bft)
27.07.2011 01:45 14,9 C 21,2 C 14,3 C 13,7 C 11,4 C 0,0 C 77 % 81 % 0 % 1015,1 hPa 0,0 l/m 0,0 km/h (0 Bft) W-SW 247 0 min 0,0 UV-I 10,9 C 11,4 C 0,0 km/h (0 Bft)
27.07.2011 01:50 14,9 C 21,2 C 14,3 C 13,7 C 11,4 C 0,0 C 77 % 81 % 0 % 1015,2 hPa 0,0 l/m 0,0 km/h (0 Bft) W-SW 247 0 min 0,0 UV-I 10,9 C 11,4 C 0,0 km/h (0 Bft)
27.07.2011 01:55 14,8 C 21,2 C 14,3 C 13,7 C 11,4 C 0,0 C 77 % 81 % 0 % 1015,2 hPa 0,0 l/m 0,0 km/h (0 Bft) W-SW 247 0 min 0,0 UV-I 10,8 C 11,4 C 0,0 km/h (0 Bft)
27.07.2011 02:00 14,8 C 21,2 C 14,3 C 13,6 C 11,3 C 0,0 C 77 % 81 % 0 % 1015,2 hPa 0,0 l/m 0,0 km/h (0 Bft) W-SW 247 0 min 0,0 UV-I 10,8 C 11,3 C 0,0 km/h (0 Bft)
27.07.2011 02:10 14,5 C 21,2 C 14,3 C 13,4 C 11,2 C 0,0 C 77 % 81 % 0 % 1015,1 hPa 0,0 l/m 0,0 km/h (0 Bft) N 0 0 min 0,0 UV-I 10,5 C 11,2 C 0,0 km/h (0 Bft)
27.07.2011 02:15 14,3 C 21,2 C 14,3 C 13,3 C 11,3 C 0,0 C 77 % 81 % 0 % 1015,1 hPa 0,0 l/m 0,0 km/h (0 Bft) N-NO 22 0 min 0,0 UV-I 10,3 C 11,3 C 0,0 km/h (0 Bft)
27.07.2011 02:20 14,3 C 21,2 C 14,3 C 13,3 C 11,3 C 0,0 C 78 % 81 % 0 % 1015,1 hPa 0,0 l/m 0,0 km/h (0 Bft) N-NO 22 0 min 0,0 UV-I 10,5 C 11,3 C 0,0 km/h (0 Bft)
27.07.2011 02:25 14,2 C 21,2 C 14,3 C 13,2 C 11,2 C 0,0 C 79 % 81 % 0 % 1015,1 hPa 0,0 l/m 0,0 km/h (0 Bft) N 360 0 min 0,0 UV-I 10,6 C 11,2 C 0,0 km/h (0 Bft)
27.07.2011 02:30 14,3 C 21,1 C 14,3 C 13,2 C 11,1 C 0,0 C 79 % 81 % 0 % 1015,3 hPa 0,0 l/m 0,0 km/h (0 Bft) W 270 0 min 0,0 UV-I 10,7 C 11,1 C 0,0 km/h (0 Bft)
27.07.2011 02:35 14,3 C 21,1 C 14,3 C 13,2 C 11,0 C 0,0 C 79 % 81 % 0 % 1015,3 hPa 0,0 l/m 0,0 km/h (0 Bft) W 270 0 min 0,0 UV-I 10,7 C 11,0 C 0,0 km/h (0 Bft)
27.07.2011 02:40 14,3 C 21,1 C 14,3 C 13,2 C 10,9 C 0,0 C 79 % 81 % 0 % 1015,3 hPa 0,0 l/m 0,0 km/h (0 Bft) W 270 0 min 0,0 UV-I 10,7 C 10,9 C 0,0 km/h (0 Bft)
27.07.2011 02:45 14,1 C 21,1 C 14,3 C 13,0 C 10,8 C 0,0 C 79 % 81 % 0 % 1015,3 hPa 0,0 l/m 0,0 km/h (0 Bft) W 270 0 min 0,0 UV-I 10,5 C 10,8 C 0,0 km/h (0 Bft)
27.07.2011 02:50 14,1 C 21,1 C 14,3 C 13,0 C 10,7 C 0,0 C 79 % 81 % 0 % 1015,3 hPa 0,0 l/m 0,0 km/h (0 Bft) W 270 0 min 0,0 UV-I 10,5 C 10,7 C 0,0 km/h (0 Bft)
27.07.2011 02:55 14,0 C 21,1 C 14,3 C 12,9 C 10,6 C 0,0 C 79 % 81 % 0 % 1015,3 hPa 0,0 l/m 0,0 km/h (0 Bft) W 270 0 min 0,0 UV-I 10,4 C 10,6 C 0,0 km/h (0 Bft)
27.07.2011 03:00 14,0 C 21,1 C 14,3 C 12,9 C 10,6 C 0,0 C 79 % 81 % 0 % 1015,3 hPa 0,0 l/m 0,0 km/h (0 Bft) W 270 0 min 0,0 UV-I 10,4 C 10,6 C 0,0 km/h (0 Bft)
27.07.2011 03:10 14,0 C 21,0 C 14,3 C 12,8 C 10,4 C 0,0 C 79 % 81 % 0 % 1015,2 hPa 0,0 l/m 0,0 km/h (0 Bft) N 0 0 min 0,0 UV-I 10,4 C 10,4 C 0,0 km/h (0 Bft)
27.07.2011 03:15 14,0 C 21,0 C 14,3 C 12,8 C 10,4 C 0,0 C 79 % 81 % 0 % 1015,2 hPa 0,0 l/m 0,0 km/h (0 Bft) W-SW 247 0 min 0,0 UV-I 10,4 C 10,4 C 0,0 km/h (0 Bft)
27.07.2011 03:20 13,9 C 21,0 C 14,3 C 12,7 C 10,3 C 0,0 C 79 % 81 % 0 % 1015,2 hPa 0,0 l/m 0,0 km/h (0 Bft) W-SW 247 0 min 0,0 UV-I 10,3 C 10,3 C 0,0 km/h (0 Bft)
27.07.2011 03:25 13,9 C 21,0 C 14,3 C 12,7 C 10,3 C 0,0 C 79 % 81 % 0 % 1015,2 hPa 0,0 l/m 0,0 km/h (0 Bft) W-SW 247 0 min 0,0 UV-I 10,3 C 10,3 C 0,0 km/h (0 Bft)
27.07.2011 03:30 13,7 C 21,0 C 14,3 C 12,5 C 10,2 C 0,0 C 79 % 81 % 0 % 1015,0 hPa 0,0 l/m 0,0 km/h (0 Bft) SW 225 0 min 0,0 UV-I 10,1 C 10,2 C 0,0 km/h (0 Bft)
27.07.2011 03:35 13,6 C 21,0 C 14,3 C 12,5 C 10,2 C 0,0 C 80 % 81 % 0 % 1015,0 hPa 0,0 l/m 0,0 km/h (0 Bft) SW 225 0 min 0,0 UV-I 10,2 C 10,2 C 0,0 km/h (0 Bft)
27.07.2011 03:40 13,6 C 21,0 C 14,3 C 12,5 C 10,2 C 0,0 C 80 % 81 % 0 % 1015,0 hPa 0,0 l/m 0,0 km/h (0 Bft) SW 225 0 min 0,0 UV-I 10,2 C 10,2 C 0,0 km/h (0 Bft)
27.07.2011 03:45 13,5 C 21,0 C 14,3 C 12,3 C 10,0 C 0,0 C 80 % 81 % 0 % 1015,0 hPa 0,0 l/m 0,0 km/h (0 Bft) SW 225 0 min 0,0 UV-I 10,1 C 10,0 C 0,0 km/h (0 Bft)
27.07.2011 03:50 13,5 C 20,9 C 14,3 C 12,3 C 10,0 C 0,0 C 80 % 81 % 0 % 1015,1 hPa 0,0 l/m 0,0 km/h (0 Bft) SW 225 0 min 0,0 UV-I 10,1 C 10,0 C 0,0 km/h (0 Bft)
27.07.2011 03:55 13,5 C 20,9 C 14,3 C 12,3 C 10,0 C 0,0 C 80 % 81 % 0 % 1015,1 hPa 0,0 l/m 0,0 km/h (0 Bft) SW 225 0 min 0,0 UV-I 10,1 C 10,0 C 0,0 km/h (0 Bft)
27.07.2011 04:00 13,5 C 20,9 C 14,3 C 12,3 C 9,9 C 0,0 C 80 % 81 % 0 % 1015,1 hPa 0,0 l/m 0,0 km/h (0 Bft) SW 225 0 min 0,0 UV-I 10,1 C 9,9 C 0,0 km/h (0 Bft)
27.07.2011 04:10 13,3 C 20,9 C 14,3 C 12,1 C 9,8 C 0,0 C 80 % 81 % 0 % 1015,0 hPa 0,0 l/m 0,0 km/h (0 Bft) N 0 0 min 0,0 UV-I 9,9 C 9,8 C 0,0 km/h (0 Bft)
27.07.2011 04:15 13,2 C 20,9 C 14,3 C 12,0 C 9,7 C 0,0 C 80 % 81 % 0 % 1015,0 hPa 0,0 l/m 0,0 km/h (0 Bft) SW 225 0 min 0,0 UV-I 9,8 C 9,7 C 0,0 km/h (0 Bft)
27.07.2011 04:20 13,2 C 20,9 C 14,3 C 12,0 C 9,7 C 0,0 C 80 % 81 % 0 % 1015,0 hPa 0,0 l/m 0,0 km/h (0 Bft) SW 225 0 min 0,0 UV-I 9,8 C 9,7 C 0,0 km/h (0 Bft)
27.07.2011 04:25 13,1 C 20,9 C 14,3 C 12,0 C 9,7 C 0,0 C 81 % 81 % 0 % 1015,0 hPa 0,0 l/m 0,0 km/h (0 Bft) SW 225 0 min 0,0 UV-I 9,9 C 9,7 C 0,0 km/h (0 Bft)
27.07.2011 04:30 13,1 C 20,8 C 14,3 C 12,0 C 9,7 C 0,0 C 81 % 81 % 0 % 1015,1 hPa 0,0 l/m 0,0 km/h (0 Bft) SW 225 0 min 0,0 UV-I 9,9 C 9,7 C 0,0 km/h (0 Bft)
27.07.2011 04:35 13,0 C 20,8 C 14,3 C 11,9 C 9,7 C 0,0 C 81 % 81 % 0 % 1015,1 hPa 0,0 l/m 0,0 km/h (0 Bft) W-SW 247 0 min 0,0 UV-I 9,8 C 9,7 C 0,0 km/h (0 Bft)
27.07.2011 04:40 13,1 C 20,8 C 14,3 C 11,9 C 9,6 C 0,0 C 80 % 81 % 0 % 1015,1 hPa 0,0 l/m 0,0 km/h (0 Bft) W-SW 247 0 min 0,0 UV-I 9,7 C 9,6 C 0,0 km/h (0 Bft)
27.07.2011 04:45 13,1 C 20,8 C 14,3 C 11,9 C 9,5 C 0,0 C 80 % 81 % 0 % 1015,1 hPa 0,0 l/m 0,0 km/h (0 Bft) W 270 0 min 0,0 UV-I 9,7 C 9,5 C 0,0 km/h (0 Bft)
27.07.2011 04:50 12,9 C 20,8 C 14,3 C 11,8 C 9,5 C 0,0 C 80 % 81 % 0 % 1015,0 hPa 0,0 l/m 0,0 km/h (0 Bft) W 270 0 min 0,0 UV-I 9,5 C 9,5 C 0,0 km/h (0 Bft)
27.07.2011 04:55 12,8 C 20,7 C 14,3 C 11,7 C 9,5 C 0,0 C 80 % 81 % 0 % 1015,0 hPa 0,0 l/m 0,0 km/h (0 Bft) W 270 0 min 0,0 UV-I 9,4 C 9,5 C 0,0 km/h (0 Bft)
27.07.2011 05:00 12,8 C 20,7 C 14,3 C 11,6 C 9,3 C 0,0 C 81 % 81 % 0 % 1015,0 hPa 0,0 l/m 0,0 km/h (0 Bft) W-SW 247 0 min 0,0 UV-I 9,6 C 9,3 C 0,0 km/h (0 Bft)
27.07.2011 05:10 12,9 C 20,7 C 14,3 C 11,7 C 9,3 C 0,0 C 81 % 81 % 0 % 1015,0 hPa 0,0 l/m 0,0 km/h (0 Bft) N 0 0 min 0,0 UV-I 9,7 C 9,3 C 0,0 km/h (0 Bft)
27.07.2011 05:15 12,7 C 20,7 C 14,3 C 11,5 C 9,1 C 0,0 C 80 % 81 % 0 % 1015,0 hPa 0,0 l/m 0,0 km/h (0 Bft) S-SO 157 0 min 0,0 UV-I 9,3 C 9,1 C 0,0 km/h (0 Bft)
27.07.2011 05:20 12,7 C 20,8 C 14,3 C 11,5 C 9,2 C 0,0 C 80 % 81 % 0 % 1015,0 hPa 0,0 l/m 0,0 km/h (0 Bft) S-SO 157 0 min 0,0 UV-I 9,3 C 9,2 C 0,0 km/h (0 Bft)
27.07.2011 05:25 12,5 C 20,8 C 11,1 C 11,4 C 9,2 C 0,0 C 81 % 87 % 0 % 1015,0 hPa 0,0 l/m 0,0 km/h (0 Bft) S-SO 157 0 min 0,0 UV-I 9,3 C 9,2 C 0,0 km/h (0 Bft)
27.07.2011 05:30 12,4 C 20,8 C 11,1 C 11,3 C 9,2 C 0,0 C 81 % 87 % 0 % 1015,2 hPa 0,0 l/m 0,0 km/h (0 Bft) S-SO 157 0 min 0,0 UV-I 9,2 C 9,2 C 0,0 km/h (0 Bft)
27.07.2011 05:35 12,4 C 20,7 C 11,1 C 11,3 C 9,2 C 0,0 C 81 % 87 % 0 % 1015,2 hPa 0,0 l/m 0,0 km/h (0 Bft) SW 225 0 min 0,0 UV-I 9,2 C 9,2 C 0,0 km/h (0 Bft)
27.07.2011 05:40 12,5 C 20,7 C 11,1 C 11,4 C 9,2 C 0,0 C 81 % 87 % 0 % 1015,2 hPa 0,0 l/m 0,0 km/h (0 Bft) SW 225 0 min 0,0 UV-I 9,3 C 9,2 C 0,0 km/h (0 Bft)
27.07.2011 05:45 12,4 C 20,7 C 11,1 C 11,3 C 9,1 C 0,0 C 81 % 87 % 0 % 1015,2 hPa 0,0 l/m 0,0 km/h (0 Bft) SW 225 0 min 0,0 UV-I 9,2 C 9,1 C 0,0 km/h (0 Bft)
27.07.2011 05:50 12,4 C 20,7 C 11,1 C 11,3 C 9,0 C 0,0 C 81 % 87 % 0 % 1015,7 hPa 0,0 l/m 0,0 km/h (0 Bft) SW 225 0 min 0,0 UV-I 9,2 C 9,0 C 0,0 km/h (0 Bft)
27.07.2011 05:55 12,3 C 20,7 C 11,1 C 11,2 C 9,0 C 0,0 C 81 % 87 % 0 % 1015,7 hPa 0,0 l/m 0,0 km/h (0 Bft) SW 225 0 min 0,0 UV-I 9,1 C 9,0 C 0,0 km/h (0 Bft)
27.07.2011 06:00 12,3 C 20,6 C 11,1 C 11,2 C 9,0 C 0,0 C 81 % 87 % 0 % 1015,7 hPa 0,0 l/m 0,0 km/h (0 Bft) SW 225 0 min 0,0 UV-I 9,1 C 9,0 C 0,0 km/h (0 Bft)
27.07.2011 06:10 12,3 C 20,7 C 11,1 C 11,3 C 9,2 C 0,0 C 81 % 87 % 0 % 1015,8 hPa 0,0 l/m 0,0 km/h (0 Bft) N 0 0 min 0,0 UV-I 9,1 C 9,2 C 0,0 km/h (0 Bft)
27.07.2011 06:15 12,1 C 20,7 C 11,1 C 11,2 C 9,4 C 0,0 C 82 % 87 % 0 % 1015,8 hPa 0,0 l/m 0,0 km/h (0 Bft) S-SO 157 0 min 0,0 UV-I 9,1 C 9,4 C 0,0 km/h (0 Bft)
27.07.2011 06:20 12,1 C 20,7 C 11,1 C 11,2 C 9,5 C 0,0 C 82 % 87 % 0 % 1015,8 hPa 0,0 l/m 0,0 km/h (0 Bft) S-SO 157 0 min 0,0 UV-I 9,1 C 9,5 C 0,0 km/h (0 Bft)
27.07.2011 06:25 12,1 C 20,6 C 11,1 C 11,3 C 9,6 C 0,0 C 82 % 87 % 0 % 1015,8 hPa 0,0 l/m 0,0 km/h (0 Bft) S-SO 157 0 min 0,0 UV-I 9,1 C 9,6 C 0,0 km/h (0 Bft)
27.07.2011 06:30 12,1 C 20,6 C 11,1 C 11,3 C 9,7 C 0,0 C 83 % 87 % 0 % 1015,9 hPa 0,0 l/m 0,0 km/h (0 Bft) S-SO 157 0 min 0,0 UV-I 9,3 C 9,7 C 0,0 km/h (0 Bft)
27.07.2011 06:35 12,2 C 20,5 C 11,1 C 11,4 C 9,9 C 0,0 C 83 % 88 % 0 % 1015,9 hPa 0,0 l/m 0,0 km/h (0 Bft) S 180 0 min 0,0 UV-I 9,4 C 9,9 C 0,0 km/h (0 Bft)
27.07.2011 06:40 12,3 C 20,4 C 11,1 C 11,5 C 10,0 C 0,0 C 83 % 88 % 0 % 1015,9 hPa 0,0 l/m 0,0 km/h (0 Bft) SW 225 0 min 0,0 UV-I 9,5 C 10,0 C 0,0 km/h (0 Bft)
27.07.2011 06:45 12,3 C 20,4 C 11,1 C 11,6 C 10,1 C 0,0 C 83 % 88 % 0 % 1015,9 hPa 0,0 l/m 0,0 km/h (0 Bft) SW 225 0 min 0,0 UV-I 9,5 C 10,1 C 0,0 km/h (0 Bft)
27.07.2011 06:50 12,3 C 20,4 C 11,2 C 11,6 C 10,2 C 0,0 C 82 % 88 % 0 % 1015,7 hPa 0,0 l/m 0,0 km/h (0 Bft) SW 225 0 min 0,0 UV-I 9,3 C 10,2 C 0,0 km/h (0 Bft)
27.07.2011 06:55 12,4 C 20,4 C 11,3 C 11,7 C 10,3 C 0,0 C 82 % 88 % 0 % 1015,7 hPa 0,0 l/m 0,0 km/h (0 Bft) SW 225 0 min 0,0 UV-I 9,4 C 10,3 C 0,0 km/h (0 Bft)
27.07.2011 07:00 12,4 C 20,4 C 11,2 C 11,7 C 10,4 C 0,0 C 82 % 88 % 0 % 1015,7 hPa 0,0 l/m 0,0 km/h (0 Bft) SW 225 0 min 0,0 UV-I 9,4 C 10,4 C 0,0 km/h (0 Bft)
27.07.2011 07:10 12,4 C 20,4 C 11,5 C 11,9 C 10,9 C 0,0 C 83 % 89 % 0 % 1015,9 hPa 0,0 l/m 0,0 km/h (0 Bft) N 0 0 min 0,0 UV-I 9,6 C 10,9 C 0,0 km/h (0 Bft)
27.07.2011 07:15 12,5 C 20,3 C 11,6 C 12,1 C 11,4 C 0,0 C 84 % 89 % 0 % 1015,9 hPa 0,0 l/m 0,0 km/h (0 Bft) SW 225 0 min 0,0 UV-I 9,9 C 11,4 C 0,0 km/h (0 Bft)
27.07.2011 07:20 12,6 C 20,3 C 11,6 C 12,2 C 11,5 C 0,0 C 84 % 89 % 0 % 1015,9 hPa 0,0 l/m 0,0 km/h (0 Bft) SW 225 0 min 0,0 UV-I 10,0 C 11,5 C 0,0 km/h (0 Bft)
27.07.2011 07:25 12,7 C 20,3 C 11,6 C 12,3 C 11,6 C 0,0 C 83 % 89 % 0 % 1015,9 hPa 0,0 l/m 0,3 km/h (0 Bft) W-SW 247 0 min 0,0 UV-I 9,9 C 11,6 C 0,0 km/h (0 Bft)
27.07.2011 07:30 12,7 C 20,3 C 11,6 C 12,4 C 11,8 C 0,0 C 83 % 89 % 0 % 1016,1 hPa 0,0 l/m 0,5 km/h (0 Bft) W-SW 247 0 min 0,1 UV-I 9,9 C 11,8 C 0,0 km/h (0 Bft)
27.07.2011 07:35 12,8 C 20,3 C 11,7 C 12,7 C 12,5 C 0,0 C 83 % 89 % 0 % 1016,1 hPa 0,0 l/m 0,0 km/h (0 Bft) W-SW 247 0 min 0,4 UV-I 10,0 C 12,5 C 0,0 km/h (0 Bft)
27.07.2011 07:40 12,9 C 20,3 C 11,9 C 13,1 C 13,1 C 0,2 C 83 % 89 % 5 % 1016,1 hPa 0,0 l/m 0,0 km/h (0 Bft) W-SW 247 0 min 1,3 UV-I 10,1 C 13,1 C 0,0 km/h (0 Bft)
27.07.2011 07:45 13,1 C 20,3 C 12,0 C 14,2 C 14,2 C 1,1 C 84 % 89 % 29 % 1016,1 hPa 0,0 l/m 0,0 km/h (0 Bft) W-SW 247 0 min 2,0 UV-I 10,5 C 14,2 C 0,0 km/h (0 Bft)
27.07.2011 07:50 13,2 C 20,3 C 12,1 C 15,1 C 15,1 C 1,9 C 84 % 89 % 50 % 1016,2 hPa 0,0 l/m 0,0 km/h (0 Bft) SW 225 0 min 2,0 UV-I 10,6 C 15,1 C 0,0 km/h (0 Bft)
27.07.2011 07:55 13,3 C 20,2 C 12,3 C 16,1 C 16,1 C 2,8 C 84 % 89 % 74 % 1016,2 hPa 0,0 l/m 0,0 km/h (0 Bft) W-SW 247 0 min 2,0 UV-I 10,7 C 16,1 C 0,0 km/h (0 Bft)
27.07.2011 08:00 13,4 C 20,2 C 12,4 C 16,4 C 16,4 C 3,0 C 84 % 89 % 79 % 1016,2 hPa 0,0 l/m 0,0 km/h (0 Bft) W-SW 247 0 min 1,9 UV-I 10,8 C 16,4 C 0,0 km/h (0 Bft)
27.07.2011 08:10 13,7 C 20,2 C 13,0 C 16,5 C 16,5 C 2,8 C 84 % 89 % 74 % 1016,2 hPa 0,0 l/m 0,5 km/h (0 Bft) N 0 0 min 1,3 UV-I 11,0 C 16,5 C 1,6 km/h (1 Bft)
27.07.2011 08:15 13,9 C 20,2 C 13,1 C 16,5 C 16,5 C 2,6 C 84 % 89 % 68 % 1016,2 hPa 0,0 l/m 1,1 km/h (1 Bft) W-SW 247 0 min 0,6 UV-I 11,2 C 16,5 C 2,9 km/h (1 Bft)
27.07.2011 08:20 13,9 C 20,1 C 13,2 C 16,7 C 16,7 C 2,8 C 84 % 89 % 74 % 1016,2 hPa 0,0 l/m 1,1 km/h (1 Bft) SW 225 0 min 0,5 UV-I 11,2 C 16,7 C 3,2 km/h (1 Bft)
27.07.2011 08:25 14,1 C 20,1 C 13,5 C 16,6 C 16,6 C 2,5 C 84 % 89 % 66 % 1016,2 hPa 0,0 l/m 1,3 km/h (1 Bft) W-SW 247 0 min 0,3 UV-I 11,4 C 16,6 C 0,0 km/h (0 Bft)
27.07.2011 08:30 14,1 C 20,1 C 13,5 C 16,8 C 16,8 C 2,7 C 84 % 89 % 71 % 1016,1 hPa 0,0 l/m 1,1 km/h (1 Bft) W 270 0 min 0,3 UV-I 11,4 C 16,8 C 0,0 km/h (0 Bft)
27.07.2011 08:35 14,3 C 20,1 C 13,7 C 17,3 C 17,3 C 3,0 C 84 % 89 % 79 % 1016,1 hPa 0,0 l/m 0,3 km/h (0 Bft) W-SW 247 0 min 0,3 UV-I 11,6 C 17,3 C 0,0 km/h (0 Bft)
27.07.2011 08:40 14,3 C 20,1 C 13,9 C 17,6 C 17,6 C 3,3 C 84 % 89 % 87 % 1016,1 hPa 0,0 l/m 0,6 km/h (0 Bft) SW 225 5 min 0,2 UV-I 11,6 C 17,6 C 2,1 km/h (1 Bft)
27.07.2011 08:45 14,5 C 20,1 C 14,1 C 18,1 C 18,1 C 3,6 C 84 % 88 % 95 % 1016,1 hPa 0,0 l/m 0,8 km/h (0 Bft) SW 225 5 min 0,2 UV-I 11,8 C 18,1 C 0,0 km/h (0 Bft)
27.07.2011 08:50 14,7 C 20,1 C 14,3 C 18,6 C 18,6 C 3,9 C 83 % 88 % 100 % 1016,4 hPa 0,0 l/m 0,8 km/h (0 Bft) W-SW 247 5 min 0,2 UV-I 11,8 C 18,6 C 0,0 km/h (0 Bft)
27.07.2011 08:55 14,7 C 20,1 C 14,4 C 19,2 C 19,2 C 4,5 C 83 % 87 % 100 % 1016,4 hPa 0,0 l/m 0,5 km/h (0 Bft) W-SW 247 5 min 0,2 UV-I 11,8 C 19,2 C 0,0 km/h (0 Bft)
27.07.2011 09:00 14,8 C 20,0 C 14,6 C 19,6 C 19,6 C 4,8 C 84 % 87 % 100 % 1016,4 hPa 0,0 l/m 0,6 km/h (0 Bft) SW 225 5 min 0,2 UV-I 12,1 C 19,6 C 1,6 km/h (1 Bft)
27.07.2011 09:10 15,1 C 20,0 C 15,1 C 20,1 C 20,1 C 5,0 C 83 % 87 % 100 % 1016,6 hPa 0,0 l/m 0,8 km/h (0 Bft) N 0 10 min 0,1 UV-I 12,2 C 20,1 C 2,3 km/h (1 Bft)
27.07.2011 09:15 15,3 C 20,0 C 15,2 C 20,9 C 20,9 C 5,6 C 83 % 86 % 100 % 1016,6 hPa 0,0 l/m 1,0 km/h (0 Bft) SW 225 5 min 0,1 UV-I 12,4 C 20,9 C 0,0 km/h (0 Bft)
27.07.2011 09:20 15,5 C 20,0 C 15,3 C 21,6 C 21,6 C 6,1 C 83 % 86 % 100 % 1016,6 hPa 0,0 l/m 1,1 km/h (1 Bft) W-SW 247 5 min 0,1 UV-I 12,6 C 21,6 C 1,8 km/h (1 Bft)
27.07.2011 09:25 15,7 C 19,9 C 15,5 C 23,8 C 23,8 C 8,1 C 83 % 84 % 100 % 1016,6 hPa 0,0 l/m 0,6 km/h (0 Bft) S 180 5 min 0,1 UV-I 12,8 C 23,8 C 0,0 km/h (0 Bft)
27.07.2011 09:30 15,7 C 19,9 C 15,8 C 24,3 C 24,3 C 8,6 C 82 % 85 % 100 % 1016,7 hPa 0,0 l/m 1,0 km/h (0 Bft) W-SW 247 5 min 0,1 UV-I 12,6 C 24,3 C 3,2 km/h (1 Bft)
27.07.2011 09:35 15,9 C 19,9 C 16,0 C 24,2 C 24,2 C 8,3 C 82 % 84 % 100 % 1016,7 hPa 0,0 l/m 1,8 km/h (1 Bft) W-SW 247 5 min 0,1 UV-I 12,8 C 24,2 C 3,9 km/h (1 Bft)
27.07.2011 09:40 16,0 C 19,9 C 16,3 C 24,4 C 24,4 C 8,4 C 82 % 84 % 100 % 1016,7 hPa 0,0 l/m 1,3 km/h (1 Bft) W 270 5 min 0,1 UV-I 12,9 C 24,4 C 3,1 km/h (1 Bft)
27.07.2011 09:45 16,2 C 19,9 C 16,4 C 25,2 C 25,2 C 9,0 C 81 % 84 % 100 % 1016,7 hPa 0,0 l/m 0,8 km/h (0 Bft) SW 225 5 min 0,0 UV-I 12,9 C 25,2 C 0,0 km/h (0 Bft)
27.07.2011 09:50 16,4 C 19,9 C 16,4 C 25,9 C 25,9 C 9,5 C 82 % 84 % 100 % 1016,6 hPa 0,0 l/m 0,6 km/h (0 Bft) W-SW 247 5 min 0,0 UV-I 13,3 C 25,9 C 2,4 km/h (1 Bft)
27.07.2011 09:55 16,6 C 20,0 C 16,6 C 26,2 C 26,2 C 9,6 C 81 % 84 % 100 % 1016,6 hPa 0,0 l/m 0,6 km/h (0 Bft) NW 315 5 min 0,0 UV-I 13,3 C 26,2 C 4,3 km/h (1 Bft)
27.07.2011 10:00 16,8 C 20,0 C 16,8 C 25,8 C 25,8 C 9,0 C 81 % 83 % 100 % 1016,6 hPa 0,0 l/m 0,6 km/h (0 Bft) O-NO 67 5 min 0,0 UV-I 13,5 C 25,8 C 0,0 km/h (0 Bft)
27.07.2011 10:10 17,2 C 20,0 C 17,5 C 23,6 C 23,6 C 6,4 C 79 % 80 % 100 % 1016,4 hPa 0,0 l/m 1,0 km/h (0 Bft) N 0 10 min 0,0 UV-I 13,5 C 23,6 C 1,8 km/h (1 Bft)
27.07.2011 10:15 17,4 C 20,0 C 17,7 C 23,6 C 23,6 C 6,2 C 79 % 80 % 100 % 1016,4 hPa 0,0 l/m 1,8 km/h (1 Bft) SW 225 5 min 0,0 UV-I 13,7 C 23,6 C 5,6 km/h (1 Bft)
27.07.2011 10:20 17,5 C 19,9 C 18,0 C 24,8 C 24,8 C 7,3 C 78 % 79 % 100 % 1016,4 hPa 0,0 l/m 1,6 km/h (1 Bft) W 270 5 min 0,0 UV-I 13,6 C 24,8 C 0,0 km/h (0 Bft)
27.07.2011 10:25 17,7 C 19,9 C 18,3 C 26,5 C 26,5 C 8,8 C 78 % 79 % 100 % 1016,4 hPa 0,0 l/m 1,6 km/h (1 Bft) S 180 5 min 0,0 UV-I 13,8 C 26,5 C 2,6 km/h (1 Bft)
27.07.2011 10:30 17,8 C 19,9 C 18,3 C 27,3 C 27,3 C 9,5 C 78 % 79 % 100 % 1016,5 hPa 0,0 l/m 1,0 km/h (0 Bft) W 270 5 min 0,0 UV-I 13,9 C 27,3 C 0,0 km/h (0 Bft)
27.07.2011 10:35 18,0 C 19,9 C 18,3 C 28,2 C 28,2 C 10,2 C 78 % 79 % 100 % 1016,5 hPa 0,0 l/m 0,6 km/h (0 Bft) S 180 5 min 0,0 UV-I 14,1 C 28,2 C 0,0 km/h (0 Bft)
27.07.2011 10:40 18,3 C 19,9 C 18,4 C 28,6 C 28,6 C 10,3 C 77 % 77 % 100 % 1016,5 hPa 0,0 l/m 0,6 km/h (0 Bft) N-NO 22 5 min 0,0 UV-I 14,2 C 28,6 C 2,4 km/h (1 Bft)
27.07.2011 10:45 18,5 C 19,9 C 18,7 C 28,7 C 28,7 C 10,2 C 76 % 76 % 100 % 1016,5 hPa 0,0 l/m 1,1 km/h (1 Bft) SW 225 5 min 0,0 UV-I 14,2 C 28,7 C 0,0 km/h (0 Bft)
27.07.2011 10:50 18,7 C 19,9 C 18,8 C 29,0 C 29,0 C 10,3 C 75 % 76 % 100 % 1016,2 hPa 0,0 l/m 0,8 km/h (0 Bft) O-NO 67 5 min 0,1 UV-I 14,2 C 29,0 C 1,9 km/h (1 Bft)
27.07.2011 10:55 18,9 C 20,0 C 19,2 C 29,1 C 29,1 C 10,2 C 74 % 75 % 100 % 1016,2 hPa 0,0 l/m 0,3 km/h (0 Bft) SW 225 5 min 0,1 UV-I 14,2 C 29,1 C 0,0 km/h (0 Bft)
27.07.2011 11:00 19,1 C 20,0 C 19,2 C 29,1 C 29,1 C 10,0 C 73 % 73 % 100 % 1016,2 hPa 0,0 l/m 1,0 km/h (0 Bft) N 360 5 min 0,1 UV-I 14,1 C 29,1 C 3,1 km/h (1 Bft)
27.07.2011 11:10 19,5 C 20,0 C 20,0 C 29,2 C 29,2 C 9,7 C 70 % 68 % 100 % 1016,4 hPa 0,0 l/m 1,1 km/h (1 Bft) N 0 10 min 0,0 UV-I 13,9 C 29,2 C 5,6 km/h (1 Bft)
27.07.2011 11:15 19,7 C 20,0 C 20,0 C 29,6 C 29,6 C 9,9 C 69 % 70 % 100 % 1016,4 hPa 0,0 l/m 1,1 km/h (1 Bft) W 270 5 min 0,0 UV-I 13,8 C 29,6 C 0,0 km/h (0 Bft)
27.07.2011 11:20 19,9 C 20,0 C 20,0 C 29,8 C 29,8 C 9,9 C 69 % 68 % 100 % 1016,4 hPa 0,0 l/m 1,6 km/h (1 Bft) O-NO 67 5 min 0,0 UV-I 14,0 C 29,8 C 3,5 km/h (1 Bft)
27.07.2011 11:25 20,0 C 20,0 C 20,4 C 29,1 C 29,1 C 9,1 C 67 % 66 % 100 % 1016,4 hPa 0,0 l/m 1,6 km/h (1 Bft) O-NO 67 5 min 0,1 UV-I 13,7 C 29,1 C 2,7 km/h (1 Bft)
27.07.2011 11:30 20,3 C 20,0 C 20,7 C 28,6 C 28,6 C 8,3 C 66 % 65 % 100 % 1016,5 hPa 0,0 l/m 1,4 km/h (1 Bft) N 360 5 min 0,1 UV-I 13,7 C 28,6 C 2,3 km/h (1 Bft)
27.07.2011 11:35 20,4 C 20,0 C 20,7 C 28,3 C 28,3 C 7,9 C 65 % 65 % 100 % 1016,5 hPa 0,0 l/m 1,6 km/h (1 Bft) W 270 5 min 0,1 UV-I 13,6 C 28,3 C 0,0 km/h (0 Bft)
27.07.2011 11:40 20,5 C 20,0 C 20,9 C 28,8 C 28,8 C 8,3 C 64 % 63 % 100 % 1016,5 hPa 0,0 l/m 1,6 km/h (1 Bft) W-NW 292 5 min 0,1 UV-I 13,5 C 28,8 C 2,9 km/h (1 Bft)
27.07.2011 11:45 20,7 C 20,0 C 21,1 C 29,6 C 29,6 C 8,9 C 63 % 61 % 100 % 1016,5 hPa 0,0 l/m 1,6 km/h (1 Bft) N-NO 22 5 min 0,1 UV-I 13,4 C 29,6 C 4,5 km/h (1 Bft)
27.07.2011 11:50 20,7 C 20,0 C 21,1 C 28,6 C 28,6 C 7,9 C 63 % 62 % 100 % 1016,6 hPa 0,0 l/m 2,1 km/h (1 Bft) N-NW 337 5 min 0,1 UV-I 13,4 C 28,6 C 3,1 km/h (1 Bft)
27.07.2011 11:55 20,7 C 20,0 C 20,9 C 26,7 C 26,7 C 6,0 C 63 % 62 % 100 % 1016,6 hPa 0,0 l/m 1,4 km/h (1 Bft) O 90 5 min 0,1 UV-I 13,4 C 26,7 C 0,0 km/h (0 Bft)
27.07.2011 12:00 20,8 C 20,0 C 21,0 C 26,9 C 26,9 C 6,1 C 62 % 62 % 100 % 1016,6 hPa 0,0 l/m 1,0 km/h (0 Bft) O-SO 112 5 min 0,1 UV-I 13,2 C 26,9 C 1,8 km/h (1 Bft)
27.07.2011 12:10 21,3 C 20,1 C 21,6 C 28,6 C 28,6 C 7,3 C 60 % 59 % 100 % 1016,4 hPa 0,0 l/m 1,8 km/h (1 Bft) N 0 10 min 0,1 UV-I 13,2 C 28,6 C 1,8 km/h (1 Bft)
27.07.2011 12:15 21,4 C 20,1 C 21,9 C 29,2 C 29,2 C 7,8 C 59 % 60 % 100 % 1016,4 hPa 0,0 l/m 1,9 km/h (1 Bft) O-NO 67 5 min 0,1 UV-I 13,0 C 29,2 C 5,8 km/h (2 Bft)
27.07.2011 12:20 21,5 C 20,1 C 21,8 C 28,8 C 28,8 C 7,3 C 59 % 58 % 100 % 1016,4 hPa 0,0 l/m 2,3 km/h (1 Bft) O-SO 112 5 min 0,1 UV-I 13,1 C 28,8 C 0,0 km/h (0 Bft)
27.07.2011 12:25 21,5 C 20,2 C 21,6 C 28,4 C 28,4 C 6,9 C 59 % 60 % 100 % 1016,4 hPa 0,0 l/m 1,8 km/h (1 Bft) NW 315 5 min 0,1 UV-I 13,1 C 28,4 C 4,5 km/h (1 Bft)
27.07.2011 12:30 21,6 C 20,2 C 21,6 C 27,8 C 27,8 C 6,2 C 59 % 60 % 100 % 1016,5 hPa 0,0 l/m 1,1 km/h (1 Bft) O-NO 67 5 min 0,1 UV-I 13,2 C 27,8 C 0,0 km/h (0 Bft)
27.07.2011 12:35 21,5 C 20,2 C 21,5 C 27,3 C 27,3 C 5,8 C 59 % 61 % 100 % 1016,5 hPa 0,0 l/m 1,1 km/h (1 Bft) N-NW 337 5 min 0,1 UV-I 13,1 C 27,3 C 1,9 km/h (1 Bft)
27.07.2011 12:40 21,6 C 20,2 C 21,5 C 27,5 C 27,5 C 5,9 C 60 % 61 % 100 % 1016,5 hPa 0,0 l/m 1,0 km/h (0 Bft) N-NW 337 5 min 0,1 UV-I 13,5 C 27,5 C 1,6 km/h (1 Bft)
27.07.2011 12:45 21,7 C 20,2 C 21,7 C 28,2 C 28,2 C 6,5 C 57 % 56 % 100 % 1016,5 hPa 0,0 l/m 1,6 km/h (1 Bft) W-SW 247 5 min 0,1 UV-I 12,8 C 28,2 C 1,8 km/h (1 Bft)
27.07.2011 12:50 21,7 C 20,2 C 21,9 C 28,6 C 28,6 C 6,9 C 57 % 58 % 100 % 1016,4 hPa 0,0 l/m 1,4 km/h (1 Bft) SW 225 5 min 0,1 UV-I 12,8 C 28,6 C 2,9 km/h (1 Bft)
27.07.2011 12:55 21,8 C 20,3 C 22,3 C 29,3 C 29,3 C 7,5 C 57 % 57 % 100 % 1016,4 hPa 0,0 l/m 1,8 km/h (1 Bft) SW 225 5 min 0,1 UV-I 12,9 C 29,3 C 7,2 km/h (2 Bft)
27.07.2011 13:00 22,1 C 20,3 C 22,3 C 29,3 C 29,3 C 7,2 C 56 % 55 % 100 % 1016,4 hPa 0,0 l/m 2,4 km/h (1 Bft) S 180 5 min 0,1 UV-I 12,9 C 29,3 C 3,1 km/h (1 Bft)
27.07.2011 13:10 22,3 C 20,2 C 22,5 C 30,4 C 30,4 C 8,1 C 55 % 54 % 100 % 1016,3 hPa 0,0 l/m 1,8 km/h (1 Bft) N 0 10 min 0,1 UV-I 12,8 C 30,4 C 4,7 km/h (1 Bft)
27.07.2011 13:15 22,3 C 20,3 C 22,8 C 30,2 C 30,2 C 7,9 C 54 % 54 % 100 % 1016,3 hPa 0,0 l/m 3,2 km/h (1 Bft) W 270 5 min 0,1 UV-I 12,5 C 30,2 C 5,6 km/h (1 Bft)
27.07.2011 13:20 22,4 C 20,3 C 23,1 C 30,3 C 30,3 C 7,9 C 54 % 52 % 100 % 1016,3 hPa 0,0 l/m 2,9 km/h (1 Bft) N 360 5 min 0,1 UV-I 12,6 C 30,3 C 0,0 km/h (0 Bft)
27.07.2011 13:25 22,5 C 20,3 C 23,1 C 30,7 C 30,7 C 8,2 C 55 % 55 % 100 % 1016,3 hPa 0,0 l/m 1,6 km/h (1 Bft) NW 315 5 min 0,1 UV-I 13,0 C 30,7 C 0,0 km/h (0 Bft)
27.07.2011 13:30 22,5 C 20,3 C 23,1 C 30,8 C 30,8 C 8,3 C 53 % 52 % 100 % 1016,2 hPa 0,0 l/m 2,1 km/h (1 Bft) N-NW 337 5 min 0,1 UV-I 12,4 C 30,8 C 3,5 km/h (1 Bft)
27.07.2011 13:35 22,6 C 20,4 C 23,2 C 30,9 C 30,9 C 8,3 C 53 % 53 % 100 % 1016,2 hPa 0,0 l/m 2,4 km/h (1 Bft) S-SO 157 5 min 0,1 UV-I 12,5 C 30,9 C 1,8 km/h (1 Bft)
27.07.2011 13:40 22,7 C 20,4 C 23,5 C 31,6 C 31,6 C 8,9 C 53 % 53 % 100 % 1016,2 hPa 0,0 l/m 1,9 km/h (1 Bft) O-SO 112 5 min 0,1 UV-I 12,6 C 31,6 C 2,1 km/h (1 Bft)
27.07.2011 13:45 22,9 C 20,4 C 23,6 C 31,0 C 31,0 C 8,1 C 52 % 49 % 100 % 1016,2 hPa 0,0 l/m 2,4 km/h (1 Bft) N 360 5 min 0,1 UV-I 12,5 C 31,0 C 3,7 km/h (1 Bft)
27.07.2011 13:50 22,9 C 20,4 C 23,6 C 30,7 C 30,7 C 7,8 C 52 % 52 % 100 % 1016,1 hPa 0,0 l/m 2,3 km/h (1 Bft) N-NO 22 5 min 0,1 UV-I 12,5 C 30,7 C 2,7 km/h (1 Bft)
27.07.2011 13:55 23,1 C 20,5 C 23,7 C 30,3 C 30,3 C 7,2 C 52 % 52 % 100 % 1016,1 hPa 0,0 l/m 1,9 km/h (1 Bft) W 270 5 min 0,1 UV-I 12,7 C 30,3 C 5,0 km/h (1 Bft)
27.07.2011 14:00 23,1 C 20,5 C 23,6 C 30,1 C 30,1 C 7,0 C 52 % 50 % 100 % 1016,1 hPa 0,0 l/m 2,4 km/h (1 Bft) N 360 5 min 0,1 UV-I 12,7 C 30,1 C 1,9 km/h (1 Bft)
27.07.2011 14:10 23,2 C 20,5 C 23,5 C 30,2 C 30,2 C 7,0 C 52 % 51 % 100 % 1016,0 hPa 0,0 l/m 1,0 km/h (0 Bft) N 0 10 min 0,1 UV-I 12,8 C 30,2 C 2,3 km/h (1 Bft)
27.07.2011 14:15 23,3 C 20,5 C 23,9 C 30,9 C 30,9 C 7,6 C 51 % 51 % 100 % 1016,0 hPa 0,0 l/m 1,6 km/h (1 Bft) W 270 5 min 0,1 UV-I 12,6 C 30,9 C 4,3 km/h (1 Bft)
27.07.2011 14:20 23,4 C 20,6 C 24,1 C 31,4 C 31,4 C 8,0 C 50 % 49 % 100 % 1016,0 hPa 0,0 l/m 1,8 km/h (1 Bft) W 270 5 min 0,1 UV-I 12,4 C 31,4 C 1,6 km/h (1 Bft)
27.07.2011 14:25 23,5 C 20,6 C 24,5 C 31,8 C 31,8 C 8,3 C 49 % 45 % 100 % 1016,0 hPa 0,0 l/m 2,1 km/h (1 Bft) O-SO 112 5 min 0,1 UV-I 12,2 C 31,8 C 3,9 km/h (1 Bft)
27.07.2011 14:30 23,6 C 20,6 C 24,4 C 31,5 C 31,5 C 7,9 C 49 % 47 % 100 % 1016,3 hPa 0,0 l/m 2,4 km/h (1 Bft) O-NO 67 5 min 0,2 UV-I 12,2 C 31,5 C 3,1 km/h (1 Bft)
27.07.2011 14:35 23,8 C 20,6 C 24,5 C 31,1 C 31,1 C 7,3 C 49 % 47 % 100 % 1016,3 hPa 0,0 l/m 2,6 km/h (1 Bft) NW 315 5 min 0,1 UV-I 12,4 C 31,1 C 4,0 km/h (1 Bft)
27.07.2011 14:40 23,8 C 20,6 C 24,7 C 31,0 C 31,0 C 7,2 C 50 % 47 % 100 % 1016,3 hPa 0,0 l/m 2,6 km/h (1 Bft) O-SO 112 5 min 0,1 UV-I 12,7 C 31,0 C 3,4 km/h (1 Bft)
27.07.2011 14:45 23,9 C 20,6 C 25,1 C 31,4 C 31,4 C 7,5 C 47 % 45 % 100 % 1016,3 hPa 0,0 l/m 1,8 km/h (1 Bft) O-SO 112 5 min 0,1 UV-I 11,9 C 31,4 C 2,3 km/h (1 Bft)
27.07.2011 14:50 23,8 C 20,7 C 24,7 C 30,5 C 30,5 C 6,7 C 47 % 46 % 100 % 1016,1 hPa 0,0 l/m 1,3 km/h (1 Bft) O 90 5 min 0,1 UV-I 11,8 C 30,5 C 2,6 km/h (1 Bft)
27.07.2011 14:55 23,9 C 20,7 C 24,3 C 28,8 C 28,8 C 4,9 C 48 % 47 % 100 % 1016,1 hPa 0,0 l/m 0,8 km/h (0 Bft) N-NO 22 5 min 0,1 UV-I 12,2 C 28,8 C 2,9 km/h (1 Bft)
27.07.2011 15:00 23,9 C 20,7 C 25,3 C 29,0 C 29,0 C 5,1 C 48 % 46 % 100 % 1016,1 hPa 0,0 l/m 1,6 km/h (1 Bft) W-SW 247 5 min 0,1 UV-I 12,2 C 29,0 C 9,5 km/h (2 Bft)
27.07.2011 15:10 23,9 C 20,8 C 27,2 C 29,8 C 29,8 C 5,9 C 47 % 44 % 100 % 1016,5 hPa 0,0 l/m 4,0 km/h (1 Bft) N 0 10 min 0,1 UV-I 11,9 C 29,8 C 9,8 km/h (2 Bft)
27.07.2011 15:15 24,1 C 20,8 C 27,3 C 30,4 C 30,4 C 6,3 C 47 % 42 % 100 % 1016,5 hPa 0,0 l/m 3,2 km/h (1 Bft) N-NO 22 5 min 0,1 UV-I 12,1 C 30,4 C 3,5 km/h (1 Bft)
27.07.2011 15:20 24,3 C 20,8 C 27,3 C 30,9 C 30,9 C 6,6 C 47 % 40 % 100 % 1016,5 hPa 0,0 l/m 2,3 km/h (1 Bft) O 90 5 min 0,1 UV-I 12,3 C 30,9 C 1,9 km/h (1 Bft)
27.07.2011 15:25 24,3 C 20,9 C 27,2 C 31,5 C 31,5 C 7,2 C 46 % 40 % 100 % 1016,5 hPa 0,0 l/m 1,4 km/h (1 Bft) O-NO 67 5 min 0,1 UV-I 11,9 C 31,5 C 0,0 km/h (0 Bft)
27.07.2011 15:30 24,3 C 20,9 C 27,1 C 31,9 C 31,9 C 7,6 C 46 % 41 % 100 % 1015,9 hPa 0,0 l/m 1,1 km/h (1 Bft) NW 315 5 min 0,1 UV-I 11,9 C 31,9 C 1,6 km/h (1 Bft)
27.07.2011 15:35 24,4 C 21,0 C 27,0 C 32,0 C 32,0 C 7,6 C 45 % 40 % 100 % 1015,9 hPa 0,0 l/m 1,8 km/h (1 Bft) O-NO 67 5 min 0,1 UV-I 11,7 C 32,0 C 3,4 km/h (1 Bft)
27.07.2011 15:40 24,5 C 21,0 C 26,6 C 31,4 C 31,4 C 6,9 C 46 % 42 % 100 % 1015,9 hPa 0,0 l/m 2,1 km/h (1 Bft) W-SW 247 5 min 0,1 UV-I 12,1 C 31,4 C 1,6 km/h (1 Bft)
27.07.2011 15:45 24,3 C 21,0 C 25,7 C 29,5 C 29,5 C 5,2 C 46 % 42 % 100 % 1015,9 hPa 0,0 l/m 1,4 km/h (1 Bft) NW 315 5 min 0,0 UV-I 11,9 C 29,5 C 5,0 km/h (1 Bft)
27.07.2011 15:50 24,3 C 21,1 C 25,7 C 28,6 C 28,6 C 4,3 C 46 % 43 % 100 % 1015,9 hPa 0,0 l/m 1,9 km/h (1 Bft) NW 315 5 min 0,0 UV-I 11,9 C 28,6 C 4,2 km/h (1 Bft)
27.07.2011 15:55 24,4 C 21,1 C 26,3 C 29,6 C 29,6 C 5,2 C 46 % 42 % 100 % 1015,9 hPa 0,0 l/m 1,9 km/h (1 Bft) O-SO 112 5 min 0,0 UV-I 12,0 C 29,6 C 1,9 km/h (1 Bft)
27.07.2011 16:00 24,4 C 21,1 C 26,3 C 30,4 C 30,4 C 6,0 C 45 % 40 % 100 % 1015,9 hPa 0,0 l/m 1,4 km/h (1 Bft) W 270 5 min 0,0 UV-I 11,7 C 30,4 C 2,9 km/h (1 Bft)
27.07.2011 16:10 24,4 C 21,2 C 25,9 C 30,4 C 30,4 C 6,0 C 45 % 41 % 100 % 1015,8 hPa 0,0 l/m 2,3 km/h (1 Bft) N 0 10 min 0,0 UV-I 11,7 C 30,4 C 3,4 km/h (1 Bft)
27.07.2011 16:15 24,4 C 21,3 C 25,8 C 29,8 C 29,8 C 5,4 C 44 % 41 % 100 % 1015,8 hPa 0,0 l/m 1,3 km/h (1 Bft) NW 315 5 min 0,0 UV-I 11,3 C 29,8 C 0,0 km/h (0 Bft)
27.07.2011 16:20 24,6 C 21,3 C 25,9 C 30,4 C 30,4 C 5,8 C 42 % 38 % 100 % 1015,8 hPa 0,0 l/m 1,0 km/h (0 Bft) SW 225 5 min 0,0 UV-I 10,8 C 30,4 C 1,6 km/h (1 Bft)
27.07.2011 16:25 24,6 C 21,4 C 26,0 C 31,2 C 31,2 C 6,6 C 42 % 40 % 100 % 1015,8 hPa 0,0 l/m 1,3 km/h (1 Bft) NW 315 5 min 0,1 UV-I 10,8 C 31,2 C 3,4 km/h (1 Bft)
27.07.2011 16:30 24,8 C 21,4 C 26,5 C 31,6 C 31,6 C 6,8 C 43 % 40 % 100 % 1015,7 hPa 0,0 l/m 1,8 km/h (1 Bft) SW 225 5 min 0,1 UV-I 11,4 C 31,6 C 3,5 km/h (1 Bft)
27.07.2011 16:35 24,8 C 21,5 C 26,8 C 32,0 C 32,0 C 7,2 C 43 % 40 % 100 % 1015,7 hPa 0,0 l/m 1,8 km/h (1 Bft) N-NW 337 5 min 0,1 UV-I 11,4 C 32,0 C 3,5 km/h (1 Bft)
27.07.2011 16:40 24,9 C 21,5 C 26,5 C 32,4 C 32,4 C 7,5 C 43 % 39 % 100 % 1015,7 hPa 0,0 l/m 1,1 km/h (1 Bft) N-NW 337 5 min 0,1 UV-I 11,4 C 32,4 C 0,0 km/h (0 Bft)
27.07.2011 16:45 25,1 C 21,5 C 26,5 C 32,5 C 32,5 C 7,4 C 43 % 40 % 100 % 1015,7 hPa 0,0 l/m 1,3 km/h (1 Bft) O-NO 67 5 min 0,1 UV-I 11,6 C 32,5 C 1,8 km/h (1 Bft)
27.07.2011 16:50 24,9 C 21,6 C 26,0 C 31,5 C 31,5 C 6,6 C 43 % 42 % 100 % 1015,6 hPa 0,0 l/m 1,3 km/h (1 Bft) W-SW 247 5 min 0,0 UV-I 11,4 C 31,5 C 1,6 km/h (1 Bft)
27.07.2011 16:55 24,8 C 21,6 C 25,3 C 29,3 C 29,3 C 4,5 C 44 % 42 % 100 % 1015,6 hPa 0,0 l/m 0,6 km/h (0 Bft) O-NO 67 5 min 0,0 UV-I 11,7 C 29,3 C 0,0 km/h (0 Bft)
27.07.2011 17:00 24,8 C 21,6 C 25,1 C 28,3 C 28,3 C 3,5 C 44 % 43 % 92 % 1015,6 hPa 0,0 l/m 0,5 km/h (0 Bft) N-NO 22 5 min 0,0 UV-I 11,7 C 28,3 C 3,9 km/h (1 Bft)
27.07.2011 17:10 24,9 C 21,7 C 25,5 C 30,5 C 30,5 C 5,6 C 43 % 42 % 100 % 1015,2 hPa 0,0 l/m 1,0 km/h (0 Bft) N 0 10 min 0,0 UV-I 11,4 C 30,5 C 4,7 km/h (1 Bft)
27.07.2011 17:15 25,1 C 21,7 C 26,1 C 30,9 C 30,9 C 5,8 C 42 % 41 % 100 % 1015,2 hPa 0,0 l/m 2,4 km/h (1 Bft) W-NW 292 5 min 0,0 UV-I 11,3 C 30,9 C 1,8 km/h (1 Bft)
27.07.2011 17:20 25,0 C 21,8 C 25,7 C 30,6 C 30,6 C 5,6 C 45 % 44 % 100 % 1015,2 hPa 0,0 l/m 2,6 km/h (1 Bft) N-NW 337 5 min 0,0 UV-I 12,2 C 30,6 C 5,5 km/h (1 Bft)
27.07.2011 17:25 25,1 C 21,8 C 25,5 C 31,0 C 31,0 C 5,9 C 45 % 44 % 100 % 1015,2 hPa 0,0 l/m 1,6 km/h (1 Bft) O-NO 67 5 min 0,0 UV-I 12,3 C 31,0 C 2,3 km/h (1 Bft)
27.07.2011 17:30 24,9 C 21,8 C 25,1 C 30,1 C 30,1 C 5,2 C 45 % 45 % 100 % 1015,4 hPa 0,0 l/m 1,3 km/h (1 Bft) N-NW 337 5 min 0,0 UV-I 12,1 C 30,1 C 3,1 km/h (1 Bft)
27.07.2011 17:35 24,8 C 21,9 C 24,8 C 28,7 C 28,7 C 3,9 C 45 % 45 % 100 % 1015,4 hPa 0,0 l/m 1,0 km/h (0 Bft) O 90 5 min 0,0 UV-I 12,0 C 28,7 C 1,9 km/h (1 Bft)
27.07.2011 17:40 24,8 C 21,9 C 24,9 C 29,1 C 29,1 C 4,3 C 45 % 44 % 100 % 1015,4 hPa 0,0 l/m 1,1 km/h (1 Bft) W-NW 292 5 min 0,0 UV-I 12,0 C 29,1 C 2,9 km/h (1 Bft)
27.07.2011 17:45 25,0 C 21,9 C 25,2 C 29,9 C 29,9 C 4,9 C 45 % 44 % 100 % 1015,4 hPa 0,0 l/m 2,1 km/h (1 Bft) O 90 5 min 0,0 UV-I 12,2 C 29,9 C 2,9 km/h (1 Bft)
27.07.2011 17:50 25,1 C 21,9 C 25,5 C 30,3 C 30,3 C 5,2 C 45 % 45 % 100 % 1015,8 hPa 0,0 l/m 2,4 km/h (1 Bft) S-SO 157 5 min 0,0 UV-I 12,3 C 30,3 C 2,6 km/h (1 Bft)
27.07.2011 17:55 25,2 C 21,9 C 25,4 C 30,3 C 30,3 C 5,1 C 45 % 44 % 100 % 1015,8 hPa 0,0 l/m 2,9 km/h (1 Bft) W-SW 247 5 min 0,0 UV-I 12,4 C 30,3 C 10,0 km/h (2 Bft)
27.07.2011 18:00 25,2 C 22,0 C 25,4 C 30,0 C 30,0 C 4,8 C 46 % 44 % 100 % 1015,8 hPa 0,0 l/m 3,1 km/h (1 Bft) O-NO 67 5 min 0,0 UV-I 12,7 C 30,0 C 2,3 km/h (1 Bft)
27.07.2011 18:10 24,9 C 22,1 C 25,4 C 29,0 C 29,0 C 4,1 C 47 % 44 % 100 % 1015,2 hPa 0,0 l/m 2,9 km/h (1 Bft) N 0 10 min 0,0 UV-I 12,8 C 29,0 C 10,3 km/h (2 Bft)
27.07.2011 18:15 24,9 C 22,1 C 25,4 C 28,3 C 28,3 C 3,4 C 48 % 44 % 89 % 1015,2 hPa 0,0 l/m 2,9 km/h (1 Bft) O-NO 67 5 min 0,0 UV-I 13,1 C 28,3 C 0,0 km/h (0 Bft)
27.07.2011 18:20 24,8 C 22,1 C 25,4 C 28,2 C 28,2 C 3,4 C 48 % 44 % 89 % 1015,2 hPa 0,0 l/m 2,1 km/h (1 Bft) N 360 5 min 0,0 UV-I 13,0 C 28,2 C 0,0 km/h (0 Bft)
27.07.2011 18:25 24,9 C 22,1 C 25,4 C 28,4 C 28,4 C 3,5 C 49 % 44 % 92 % 1015,2 hPa 0,0 l/m 1,4 km/h (1 Bft) N-NO 22 5 min 0,0 UV-I 13,4 C 28,4 C 4,0 km/h (1 Bft)
27.07.2011 18:30 24,8 C 22,1 C 25,4 C 28,5 C 28,5 C 3,7 C 50 % 44 % 97 % 1014,8 hPa 0,0 l/m 1,8 km/h (1 Bft) O 90 5 min 0,0 UV-I 13,7 C 28,5 C 1,6 km/h (1 Bft)
27.07.2011 18:35 24,8 C 22,2 C 25,4 C 28,4 C 28,4 C 3,6 C 48 % 44 % 95 % 1014,8 hPa 0,0 l/m 2,1 km/h (1 Bft) O-NO 67 5 min 0,0 UV-I 13,0 C 28,4 C 2,1 km/h (1 Bft)
27.07.2011 18:40 24,8 C 22,2 C 24,3 C 28,3 C 28,3 C 3,5 C 48 % 49 % 92 % 1014,8 hPa 0,0 l/m 1,6 km/h (1 Bft) NO 45 5 min 0,0 UV-I 13,0 C 28,3 C 3,1 km/h (1 Bft)
27.07.2011 18:45 24,7 C 22,2 C 24,1 C 28,0 C 28,0 C 3,3 C 48 % 50 % 87 % 1014,8 hPa 0,0 l/m 2,6 km/h (1 Bft) NO 45 5 min 0,0 UV-I 12,9 C 28,0 C 1,9 km/h (1 Bft)
27.07.2011 18:50 24,6 C 22,2 C 24,1 C 27,8 C 27,8 C 3,2 C 50 % 50 % 84 % 1015,4 hPa 0,0 l/m 2,3 km/h (1 Bft) N 360 5 min 0,0 UV-I 13,5 C 27,8 C 2,3 km/h (1 Bft)
27.07.2011 18:55 24,7 C 22,2 C 24,1 C 27,8 C 27,8 C 3,1 C 49 % 50 % 82 % 1015,4 hPa 0,0 l/m 1,3 km/h (1 Bft) O-SO 112 5 min 0,0 UV-I 13,3 C 27,8 C 3,4 km/h (1 Bft)
27.07.2011 19:00 24,7 C 22,2 C 24,1 C 27,8 C 27,8 C 3,1 C 50 % 50 % 82 % 1015,4 hPa 0,0 l/m 1,1 km/h (1 Bft) N-NW 337 5 min 0,0 UV-I 13,6 C 27,8 C 2,7 km/h (1 Bft)
27.07.2011 19:10 24,5 C 22,2 C 24,1 C 27,7 C 27,7 C 3,2 C 48 % 50 % 84 % 1015,4 hPa 0,0 l/m 0,8 km/h (0 Bft) N 0 10 min 0,0 UV-I 12,8 C 27,7 C 1,6 km/h (1 Bft)
27.07.2011 19:15 24,4 C 22,2 C 24,1 C 27,6 C 27,6 C 3,2 C 49 % 50 % 84 % 1015,4 hPa 0,0 l/m 0,8 km/h (0 Bft) O-NO 67 5 min 0,0 UV-I 13,0 C 27,6 C 2,6 km/h (1 Bft)
27.07.2011 19:20 24,4 C 22,3 C 24,1 C 27,4 C 27,4 C 3,0 C 49 % 50 % 79 % 1015,4 hPa 0,0 l/m 0,8 km/h (0 Bft) SO 135 5 min 0,0 UV-I 13,0 C 27,4 C 0,0 km/h (0 Bft)
27.07.2011 19:25 24,4 C 22,3 C 24,1 C 27,1 C 27,1 C 2,7 C 50 % 50 % 71 % 1015,4 hPa 0,0 l/m 0,5 km/h (0 Bft) NO 45 5 min 0,0 UV-I 13,3 C 27,1 C 0,0 km/h (0 Bft)
27.07.2011 19:30 24,4 C 22,3 C 24,1 C 27,1 C 27,1 C 2,7 C 51 % 50 % 71 % 1015,3 hPa 0,0 l/m 0,2 km/h (0 Bft) O-SO 112 5 min 0,0 UV-I 13,6 C 27,1 C 0,0 km/h (0 Bft)
27.07.2011 19:35 24,5 C 22,3 C 24,1 C 27,1 C 27,1 C 2,6 C 51 % 50 % 68 % 1015,3 hPa 0,0 l/m 0,0 km/h (0 Bft) O-SO 112 5 min 0,0 UV-I 13,7 C 27,1 C 0,0 km/h (0 Bft)
27.07.2011 19:40 24,4 C 22,3 C 24,1 C 26,9 C 26,9 C 2,5 C 51 % 50 % 66 % 1015,3 hPa 0,0 l/m 0,0 km/h (0 Bft) O-NO 67 5 min 0,0 UV-I 13,6 C 26,9 C 0,0 km/h (0 Bft)
27.07.2011 19:45 24,3 C 22,3 C 24,1 C 26,6 C 26,6 C 2,3 C 51 % 50 % 61 % 1015,3 hPa 0,0 l/m 0,0 km/h (0 Bft) O 90 5 min 0,0 UV-I 13,5 C 26,6 C 0,0 km/h (0 Bft)
27.07.2011 19:50 24,3 C 22,3 C 24,1 C 26,3 C 26,3 C 2,0 C 52 % 50 % 53 % 1014,9 hPa 0,0 l/m 0,0 km/h (0 Bft) O-NO 67 5 min 0,0 UV-I 13,8 C 26,3 C 1,6 km/h (1 Bft)
27.07.2011 19:55 24,1 C 22,3 C 24,1 C 25,8 C 25,8 C 1,7 C 52 % 50 % 45 % 1014,9 hPa 0,0 l/m 0,0 km/h (0 Bft) NO 45 5 min 0,0 UV-I 13,6 C 25,8 C 0,0 km/h (0 Bft)
27.07.2011 20:00 24,0 C 22,3 C 24,1 C 25,6 C 25,6 C 1,6 C 52 % 50 % 42 % 1014,9 hPa 0,0 l/m 0,0 km/h (0 Bft) NO 45 5 min 0,0 UV-I 13,5 C 25,6 C 0,0 km/h (0 Bft)
27.07.2011 20:10 23,9 C 22,3 C 24,1 C 24,7 C 24,7 C 0,8 C 53 % 50 % 21 % 1015,3 hPa 0,0 l/m 0,0 km/h (0 Bft) N 0 0 min 0,0 UV-I 13,7 C 24,7 C 2,4 km/h (1 Bft)
27.07.2011 20:15 23,7 C 22,3 C 24,1 C 23,7 C 23,6 C 0,0 C 53 % 50 % 0 % 1015,3 hPa 0,0 l/m 0,3 km/h (0 Bft) O 90 0 min 0,0 UV-I 13,5 C 23,6 C 0,0 km/h (0 Bft)
27.07.2011 20:20 23,5 C 22,3 C 24,1 C 23,3 C 22,9 C 0,0 C 53 % 50 % 0 % 1015,3 hPa 0,0 l/m 0,5 km/h (0 Bft) O-NO 67 0 min 0,0 UV-I 13,4 C 22,9 C 0,0 km/h (0 Bft)
27.07.2011 20:25 23,2 C 22,3 C 24,1 C 22,8 C 22,1 C 0,0 C 54 % 50 % 0 % 1015,3 hPa 0,0 l/m 0,3 km/h (0 Bft) O-NO 67 0 min 0,0 UV-I 13,4 C 22,1 C 0,0 km/h (0 Bft)
27.07.2011 20:30 23,0 C 22,3 C 24,1 C 22,6 C 21,7 C 0,0 C 54 % 50 % 0 % 1015,6 hPa 0,0 l/m 0,2 km/h (0 Bft) O-SO 112 0 min 0,0 UV-I 13,2 C 21,7 C 0,0 km/h (0 Bft)
27.07.2011 20:35 22,9 C 22,3 C 24,1 C 22,3 C 21,1 C 0,0 C 55 % 50 % 0 % 1015,6 hPa 0,0 l/m 0,0 km/h (0 Bft) O-NO 67 0 min 0,0 UV-I 13,4 C 21,1 C 0,0 km/h (0 Bft)
27.07.2011 20:40 22,8 C 22,3 C 24,1 C 22,1 C 20,7 C 0,0 C 56 % 50 % 0 % 1015,6 hPa 0,0 l/m 0,0 km/h (0 Bft) N-NO 22 0 min 0,0 UV-I 13,6 C 20,7 C 0,0 km/h (0 Bft)
27.07.2011 20:45 22,8 C 22,3 C 24,1 C 21,9 C 20,2 C 0,0 C 57 % 50 % 0 % 1015,6 hPa 0,0 l/m 0,0 km/h (0 Bft) N-NO 22 0 min 0,0 UV-I 13,8 C 20,2 C 0,0 km/h (0 Bft)
27.07.2011 20:50 22,7 C 22,4 C 24,1 C 21,8 C 19,9 C 0,0 C 57 % 50 % 0 % 1015,6 hPa 0,0 l/m 0,0 km/h (0 Bft) NO 45 0 min 0,0 UV-I 13,7 C 19,9 C 0,0 km/h (0 Bft)
27.07.2011 20:55 22,6 C 22,4 C 24,1 C 21,6 C 19,5 C 0,0 C 57 % 50 % 0 % 1015,6 hPa 0,0 l/m 0,0 km/h (0 Bft) N-NO 22 0 min 0,0 UV-I 13,6 C 19,5 C 0,0 km/h (0 Bft)
27.07.2011 21:00 22,5 C 22,4 C 24,1 C 21,4 C 19,2 C 0,0 C 58 % 50 % 0 % 1015,6 hPa 0,0 l/m 0,0 km/h (0 Bft) N-NO 22 0 min 0,0 UV-I 13,8 C 19,2 C 0,0 km/h (0 Bft)
27.07.2011 21:10 22,3 C 22,4 C 19,9 C 21,1 C 18,6 C 0,0 C 59 % 66 % 0 % 1015,5 hPa 0,0 l/m 0,0 km/h (0 Bft) N 0 0 min 0,0 UV-I 13,9 C 18,6 C 0,0 km/h (0 Bft)
27.07.2011 21:15 22,1 C 22,4 C 19,7 C 20,8 C 18,3 C 0,0 C 59 % 66 % 0 % 1015,5 hPa 0,0 l/m 0,0 km/h (0 Bft) NO 45 0 min 0,0 UV-I 13,7 C 18,3 C 0,0 km/h (0 Bft)
27.07.2011 21:20 22,1 C 22,4 C 19,7 C 20,8 C 18,3 C 0,0 C 59 % 66 % 0 % 1015,5 hPa 0,0 l/m 0,0 km/h (0 Bft) NO 45 0 min 0,0 UV-I 13,7 C 18,3 C 0,0 km/h (0 Bft)
27.07.2011 21:25 21,9 C 22,4 C 19,2 C 20,6 C 18,0 C 0,0 C 60 % 69 % 0 % 1015,5 hPa 0,0 l/m 0,0 km/h (0 Bft) O-NO 67 0 min 0,0 UV-I 13,8 C 18,0 C 0,0 km/h (0 Bft)
27.07.2011 21:30 21,5 C 22,4 C 18,9 C 20,3 C 17,8 C 0,0 C 61 % 71 % 0 % 1016,1 hPa 0,0 l/m 0,0 km/h (0 Bft) O-NO 67 0 min 0,0 UV-I 13,7 C 17,8 C 0,0 km/h (0 Bft)
27.07.2011 21:35 21,1 C 22,4 C 18,6 C 19,9 C 17,5 C 0,0 C 62 % 72 % 0 % 1016,1 hPa 0,0 l/m 0,0 km/h (0 Bft) W-SW 247 0 min 0,0 UV-I 13,5 C 17,5 C 0,0 km/h (0 Bft)
27.07.2011 21:40 21,1 C 22,3 C 18,7 C 19,8 C 17,3 C 0,0 C 63 % 72 % 0 % 1016,1 hPa 0,0 l/m 0,0 km/h (0 Bft) S 180 0 min 0,0 UV-I 13,8 C 17,3 C 0,0 km/h (0 Bft)
27.07.2011 21:45 21,0 C 22,4 C 18,5 C 19,7 C 17,0 C 0,0 C 63 % 72 % 0 % 1016,1 hPa 0,0 l/m 0,0 km/h (0 Bft) S 180 0 min 0,0 UV-I 13,7 C 17,0 C 0,0 km/h (0 Bft)
27.07.2011 21:50 20,9 C 22,3 C 18,3 C 19,5 C 16,8 C 0,0 C 63 % 73 % 0 % 1016,1 hPa 0,0 l/m 0,0 km/h (0 Bft) S 180 0 min 0,0 UV-I 13,6 C 16,8 C 0,0 km/h (0 Bft)
27.07.2011 21:55 20,7 C 22,3 C 18,0 C 19,3 C 16,5 C 0,0 C 64 % 74 % 0 % 1016,1 hPa 0,0 l/m 0,0 km/h (0 Bft) S 180 0 min 0,0 UV-I 13,6 C 16,5 C 0,0 km/h (0 Bft)
27.07.2011 22:00 20,4 C 22,4 C 17,8 C 19,0 C 16,2 C 0,0 C 65 % 74 % 0 % 1016,1 hPa 0,0 l/m 0,0 km/h (0 Bft) S 180 0 min 0,0 UV-I 13,6 C 16,2 C 0,0 km/h (0 Bft)
27.07.2011 22:10 19,9 C 22,4 C 17,3 C 18,5 C 15,8 C 0,0 C 66 % 76 % 0 % 1016,2 hPa 0,0 l/m 0,0 km/h (0 Bft) N 0 0 min 0,0 UV-I 13,4 C 15,8 C 0,0 km/h (0 Bft)
27.07.2011 22:15 19,9 C 22,4 C 17,3 C 18,5 C 15,8 C 0,0 C 66 % 76 % 0 % 1016,2 hPa 0,0 l/m 0,0 km/h (0 Bft) O-NO 67 0 min 0,0 UV-I 13,4 C 15,8 C 0,0 km/h (0 Bft)
27.07.2011 22:20 19,7 C 22,4 C 17,2 C 18,4 C 15,8 C 0,0 C 67 % 77 % 0 % 1016,2 hPa 0,0 l/m 0,0 km/h (0 Bft) O-NO 67 0 min 0,0 UV-I 13,4 C 15,8 C 0,0 km/h (0 Bft)
27.07.2011 22:25 19,5 C 22,4 C 17,0 C 18,2 C 15,6 C 0,0 C 67 % 77 % 0 % 1016,2 hPa 0,0 l/m 0,0 km/h (0 Bft) O-NO 67 0 min 0,0 UV-I 13,2 C 15,6 C 0,0 km/h (0 Bft)
27.07.2011 22:30 19,4 C 22,4 C 17,1 C 18,1 C 15,5 C 0,0 C 68 % 78 % 0 % 1016,2 hPa 0,0 l/m 0,0 km/h (0 Bft) O 90 0 min 0,0 UV-I 13,3 C 15,5 C 0,0 km/h (0 Bft)
27.07.2011 22:35 19,2 C 22,4 C 16,9 C 17,9 C 15,3 C 0,0 C 68 % 78 % 0 % 1016,2 hPa 0,0 l/m 0,0 km/h (0 Bft) O-NO 67 0 min 0,0 UV-I 13,1 C 15,3 C 0,0 km/h (0 Bft)
27.07.2011 22:40 19,2 C 22,4 C 16,9 C 17,9 C 15,2 C 0,0 C 68 % 78 % 0 % 1016,2 hPa 0,0 l/m 0,0 km/h (0 Bft) N-NW 337 0 min 0,0 UV-I 13,1 C 15,2 C 0,0 km/h (0 Bft)
27.07.2011 22:45 19,1 C 22,4 C 16,8 C 17,7 C 15,0 C 0,0 C 69 % 78 % 0 % 1016,2 hPa 0,0 l/m 0,0 km/h (0 Bft) N-NW 337 0 min 0,0 UV-I 13,3 C 15,0 C 0,0 km/h (0 Bft)
27.07.2011 22:50 19,1 C 22,4 C 16,7 C 17,7 C 14,9 C 0,0 C 69 % 78 % 0 % 1016,1 hPa 0,0 l/m 0,0 km/h (0 Bft) N-NW 337 0 min 0,0 UV-I 13,3 C 14,9 C 0,0 km/h (0 Bft)
27.07.2011 22:55 18,8 C 22,4 C 16,4 C 17,4 C 14,7 C 0,0 C 70 % 79 % 0 % 1016,1 hPa 0,0 l/m 0,0 km/h (0 Bft) O 90 0 min 0,0 UV-I 13,2 C 14,7 C 0,0 km/h (0 Bft)
27.07.2011 23:00 18,6 C 22,4 C 16,3 C 17,3 C 14,7 C 0,0 C 70 % 79 % 0 % 1016,1 hPa 0,0 l/m 0,0 km/h (0 Bft) NO 45 0 min 0,0 UV-I 13,0 C 14,7 C 0,0 km/h (0 Bft)
27.07.2011 23:10 18,3 C 22,3 C 16,1 C 17,0 C 14,3 C 0,0 C 72 % 80 % 0 % 1016,0 hPa 0,0 l/m 0,0 km/h (0 Bft) N 0 0 min 0,0 UV-I 13,2 C 14,3 C 0,0 km/h (0 Bft)
27.07.2011 23:15 18,3 C 22,3 C 16,1 C 17,0 C 14,3 C 0,0 C 72 % 80 % 0 % 1016,0 hPa 0,0 l/m 0,0 km/h (0 Bft) N-NW 337 0 min 0,0 UV-I 13,2 C 14,3 C 0,0 km/h (0 Bft)
27.07.2011 23:20 18,3 C 22,3 C 16,1 C 16,9 C 14,2 C 0,0 C 72 % 81 % 0 % 1016,0 hPa 0,0 l/m 0,0 km/h (0 Bft) N-NW 337 0 min 0,0 UV-I 13,2 C 14,2 C 0,0 km/h (0 Bft)
27.07.2011 23:25 18,3 C 22,3 C 16,1 C 16,9 C 14,0 C 0,0 C 72 % 81 % 0 % 1016,0 hPa 0,0 l/m 0,0 km/h (0 Bft) N-NW 337 0 min 0,0 UV-I 13,2 C 14,0 C 0,0 km/h (0 Bft)
27.07.2011 23:30 18,1 C 22,3 C 16,0 C 16,7 C 13,9 C 0,0 C 73 % 81 % 0 % 1015,9 hPa 0,0 l/m 0,0 km/h (0 Bft) N-NW 337 0 min 0,0 UV-I 13,2 C 13,9 C 0,0 km/h (0 Bft)
27.07.2011 23:35 18,0 C 22,4 C 15,9 C 16,6 C 13,8 C 0,0 C 73 % 81 % 0 % 1015,9 hPa 0,0 l/m 0,0 km/h (0 Bft) N-NW 337 0 min 0,0 UV-I 13,1 C 13,8 C 0,0 km/h (0 Bft)
27.07.2011 23:40 17,9 C 22,4 C 15,9 C 16,5 C 13,7 C 0,0 C 73 % 81 % 0 % 1015,9 hPa 0,0 l/m 0,0 km/h (0 Bft) N-NW 337 0 min 0,0 UV-I 13,0 C 13,7 C 0,0 km/h (0 Bft)
27.07.2011 23:45 17,7 C 22,4 C 15,6 C 16,3 C 13,6 C 0,0 C 73 % 81 % 0 % 1015,9 hPa 0,0 l/m 0,0 km/h (0 Bft) N-NW 337 0 min 0,0 UV-I 12,8 C 13,6 C 0,0 km/h (0 Bft)
27.07.2011 23:50 17,7 C 22,3 C 15,7 C 16,3 C 13,6 C 0,0 C 73 % 82 % 0 % 1016,1 hPa 0,0 l/m 0,0 km/h (0 Bft) NW 315 0 min 0,0 UV-I 12,8 C 13,6 C 0,0 km/h (0 Bft)
27.07.2011 23:55 17,5 C 22,3 C 15,6 C 16,2 C 13,5 C 0,0 C 74 % 82 % 0 % 1016,1 hPa 0,0 l/m 0,0 km/h (0 Bft) W 270 0 min 0,0 UV-I 12,8 C 13,5 C 0,0 km/h (0 Bft)
_ Min-Zeit 06:15 09:25 05:25 05:55 05:50 00:00 16:20 16:20 00:00 00:10 - 00:00 - - - 00:00 06:15 05:50 00:00
Minimum _ 12,1 C 19,9 C 11,1 C 11,2 C 9,0 C 0,0 C 42 % 38 % 0 % 1014,8 hPa - 0,0 km/h (0 Bft) - - - 0,0 UV-I 9,1 C 9,0 C 0,0 km/h (0 Bft)
_ Max-Zeit 17:55 20:50 15:15 16:45 16:45 10:40 07:15 07:10 08:50 09:30 00:00 15:10 - - 09:10 07:45 10:40 16:45 18:10
Maximum _ 25,2 C 22,4 C 27,3 C 32,5 C 32,5 C 10,3 C 84 % 89 % 100 % 1016,7 hPa 0,0 l/m 4,0 km/h
N (1 Bft)
- - 10 min 2,0 UV-I 14,2 C 32,5 C 10,3 km/h
N (2 Bft)
Durchschnitt _ 18,8 C 21,1 C 18,6 C 21,4 C 20,3 C 3,1 C 66 % 68 % 48 % 1015,7 hPa #0,0 l/m 0,7 km/h (0 Bft) O-NO - #11:25 h 0,3 UV-I 11,9 C 20,3 C 1,3 km/h (1 Bft)
2013 www.wetterstation-wechselburg.de